sat.trackr.live / text

‹ back to catalog

QZS-2 (QZSS/PRN 194)

NORAD 42738 · 2017-028A

PAYLOAD ACTIVE UNKNOWN

§ Identity

Operator
Country
JPN
Launch date
2017-06-01
Launch site
TANSC
Launch vehicle
Mass (kg)
RCS (m²)

Purposes: comms, nav

External: N2YO · Heavens-Above · Gunter

§ Orbital elements

Epoch: 2026-09-19T19:35:38.669856Z

Period
1,436.27 min
Inclination
39.2923°
Eccentricity
0.0749522
Mean motion
1.00259490 rev/d
Perigee alt
32,629.4 km
Apogee alt
38,950.6 km
Semi-major
42,168.2 km
B*
0.0000e+0
RAAN
241.7607°
Arg perigee
270.5086°
Mean anomaly
281.5750°
Rev number
857

§ Raw data

QZS-2 (QZSS/PRN 194)1 42738U 17028A   26262.81641979 -.00000160  00000+0  00000+0 0  99912 42738  39.2923 241.7607 0749522 270.5086 281.5750  1.00259490  8576

JSON: /api/v1/satellites/42738 · /tle

For live sub-satellite position, see the globe view (requires WebGL).

§ Visibility from observer

Set your observer location to see the next 7 days of passes ≥ 10°. The values pass through the URL so the page stays shareable.

No JS? Fill the form by hand. The geolocation button needs JavaScript.